Time,TemperatureF,DewpointF,PressureIn,WindDirection,WindDirectionDegrees,WindSpeedMPH,WindSpeedGustMPH,Humidity,HourlyPrecipIn,Conditions,Clouds,dailyrainin,SoftwareType,DateUTC
2017-02-24 00:00:00,55.4,50.0,29.90,SSW,193,1.0,4.0,82,0.00,CLR,,0.00,WeatherDisplay:10.37,2017-02-24 05:00:00,
2017-02-24 00:30:00,54.0,48.6,29.90,SSW,195,0.0,3.0,82,0.00,CLR,,0.00,WeatherDisplay:10.37,2017-02-24 05:30:00,
2017-02-24 01:00:00,54.7,49.6,29.90,SSW,195,0.0,2.0,83,0.00,CLR,,0.00,WeatherDisplay:10.37,2017-02-24 06:00:00,
2017-02-24 01:30:00,54.9,49.8,29.91,SSW,194,0.0,3.0,83,0.00,CLR,,0.00,WeatherDisplay:10.37,2017-02-24 06:30:00,
2017-02-24 02:00:00,54.5,49.5,29.91,SSW,194,0.0,2.0,83,0.00,CLR,,0.00,WeatherDisplay:10.37,2017-02-24 07:00:00,
2017-02-24 02:30:00,53.3,48.9,29.91,SW,217,0.0,3.0,85,0.00,CLR,,0.00,WeatherDisplay:10.37,2017-02-24 07:30:00,
2017-02-24 03:00:00,53.6,49.2,29.91,SSW,203,1.0,3.0,85,0.00,CLR,,0.00,WeatherDisplay:10.37,2017-02-24 08:00:00,
2017-02-24 03:30:00,53.7,49.6,29.91,SSW,201,0.0,3.0,86,0.00,CLR,,0.00,WeatherDisplay:10.37,2017-02-24 08:30:00,
2017-02-24 04:00:00,53.2,49.4,29.92,SSW,203,1.0,3.0,87,0.00,CLR,,0.00,WeatherDisplay:10.37,2017-02-24 09:00:00,
2017-02-24 04:30:00,51.9,48.1,29.92,South,189,0.0,2.0,87,0.00,CLR,,0.00,WeatherDisplay:10.37,2017-02-24 09:30:00,
2017-02-24 05:00:00,51.9,48.8,29.93,South,189,0.0,2.0,89,0.00,CLR,,0.00,WeatherDisplay:10.37,2017-02-24 10:00:00,
2017-02-24 05:30:00,52.2,49.1,29.93,South,189,0.0,2.0,89,0.00,CLR,,0.00,WeatherDisplay:10.37,2017-02-24 10:30:00,
2017-02-24 06:00:00,52.6,49.4,29.92,South,189,1.0,2.0,89,0.00,CLR,,0.00,WeatherDisplay:10.37,2017-02-24 11:00:00,
2017-02-24 06:30:00,53.0,49.9,29.93,SW,235,0.0,3.0,89,0.00,CLR,,0.00,WeatherDisplay:10.37,2017-02-24 11:30:00,
2017-02-24 07:00:00,53.1,49.9,29.93,SW,216,0.0,4.0,89,0.00,CLR,,0.00,WeatherDisplay:10.37,2017-02-24 12:00:00,
2017-02-24 07:30:00,52.7,49.6,29.94,SSW,213,2.0,6.0,89,0.00,CLR,,0.00,WeatherDisplay:10.37,2017-02-24 12:30:00,
2017-02-24 08:00:00,54.5,50.7,29.94,SSW,201,2.0,6.0,87,0.00,CLR,,0.00,WeatherDisplay:10.37,2017-02-24 13:00:00,
2017-02-24 08:30:00,57.2,52.1,29.95,SSW,212,2.0,4.0,83,0.00,CLR,,0.00,WeatherDisplay:10.37,2017-02-24 13:30:00,
2017-02-24 09:00:00,61.2,54.6,29.95,WSW,248,1.0,7.0,79,0.00,CLR,,0.00,WeatherDisplay:10.37,2017-02-24 14:00:00,
2017-02-24 09:30:00,63.7,55.6,29.95,WNW,294,3.0,6.0,75,0.00,CLR,,0.00,WeatherDisplay:10.37,2017-02-24 14:30:00,
2017-02-24 10:00:00,65.4,56.5,29.95,WNW,292,1.0,7.0,73,0.00,CLR,,0.00,WeatherDisplay:10.37,2017-02-24 15:00:00,
2017-02-24 10:30:00,67.1,57.0,29.94,WSW,256,2.0,7.0,70,0.00,CLR,,0.00,WeatherDisplay:10.37,2017-02-24 15:30:00,
2017-02-24 11:00:00,68.9,57.5,29.94,WNW,285,3.0,7.0,67,0.00,CLR,,0.00,WeatherDisplay:10.37,2017-02-24 16:00:00,
2017-02-24 11:30:00,69.0,56.3,29.93,SSW,210,3.0,10.0,64,0.00,CLR,,0.00,WeatherDisplay:10.37,2017-02-24 16:30:00,
2017-02-24 12:00:00,68.2,56.0,29.92,SSW,194,2.0,7.0,65,0.00,CLR,,0.00,WeatherDisplay:10.37,2017-02-24 17:00:00,
2017-02-24 12:30:00,68.9,56.7,29.91,South,190,1.0,8.0,65,0.00,CLR,,0.00,WeatherDisplay:10.37,2017-02-24 17:30:00,
2017-02-24 13:00:00,70.3,56.7,29.89,South,171,3.0,8.0,62,0.00,CLR,,0.00,WeatherDisplay:10.37,2017-02-24 18:00:00,